Regional Weather Roundup
Issued by NWS

Home | Current Version | Previous Version | Text Only | Print | Product List | Glossary Off
Versions: 1 2 3 4 5 6 7 8 9 10 11 12 13 14 15 16 17 18 19 20 21 22 23 24 25 26 27 28 29 30 31 32 33 34 35 36 37 38 39 40 41 42 43 44 45 46 47 48 49 50

000
ASUS43 KFSD 301202
RWRSD

WEATHER ROUNDUP FOR SOUTH DAKOTA
NATIONAL WEATHER SERVICE SIOUX FALLS SD
700 AM CDT TUE JUN 30 2015

NOTE: "FAIR" INDICATES FEW OR NO CLOUDS BELOW 12,000 FEET WITH NO
SIGNIFICANT WEATHER AND/OR OBSTRUCTIONS TO VISIBILITY.


SDZ001>005-009-010-012>017-301300-
NORTHWEST AND NORTH CENTRAL SOUTH DAKOTA

CITY           SKY/WX    TMP DP  RH WIND       PRES   REMARKS
BUFFALO          N/A     65  58  78 NE10      29.89S
FAITH            N/A     67  59  75 SE16      29.92S
MOBRIDGE       CLOUDY    68  66  93 E5        29.91R
$$

SDZ012>016-024>037-041>051-057-063-072>074-301300-
SOUTHWEST AND SOUTH CENTRAL SOUTH DAKOTA

CITY           SKY/WX    TMP DP  RH WIND       PRES   REMARKS
RAPID CTY ARPT PTCLDY    66  56  70 NW5       29.95F
PIERRE         CLOUDY    70  61  73 SE13      29.90F
CUSTER         CLEAR     62  51  67 W6        30.14F
ELLSWORTH AFB  PTCLDY    68  57  68 W7        29.94F
PHILIP         MOCLDY    68  63  84 NE9       29.92R
PINE RIDGE     PTCLDY    60  56  86 CALM      30.01S
WINNER         PTSUNNY   70  60  70 SE13      29.96R
$$

SDZ004>011-016>023-039-040-301300-
NORTHEAST SOUTH DAKOTA

CITY           SKY/WX    TMP DP  RH WIND       PRES   REMARKS
ABERDEEN       CLOUDY    65  62  90 NE3       29.96S FOG
WATERTOWN      CLOUDY    62  59  90 NE5       29.96S FOG
BROOKINGS      CLOUDY    63  57  82 CALM      29.98R
SISSETON         N/A     61  60  97 N6        29.96R
$$

SDZ017-020-022-023-036>040-048>070-301300-
SOUTHEAST SOUTH DAKOTA

CITY           SKY/WX    TMP DP  RH WIND       PRES   REMARKS
SIOUX FALLS    CLOUDY    65  62  90 CALM      29.95S
HURON          CLOUDY    67  65  93 S3        29.94F FOG
CHAMBERLAIN    CLOUDY    67  63  87 SE7       29.94F
MITCHELL       LGT RAIN  68  67  96 SE3       29.95F FOG
YANKTON        CLOUDY    66  63  88 W3        29.96R
$$

ABBREVIATIONS USED IN REMARKS
   TC - TEMPERATURE IN CELSIUS
  WCI - WIND CHILL INDEX
   HX - HEAT INDEX
  VSB - VISIBILITY



USA.gov is the U.S. government's official web portal to all federal, state and local government web resources and services.